Location: Blanot
(47.1713°N, 4.2340°E)
Time: 08:37:52
(UTC+00:00)

Cosmos 1536 - Pass Details

Date: 14 July 2020
Orbit: 539 x 559 km, 82.5° (Epoch: 14 August)

Event Time Altitude Azimuth Distance (km) Brightness Sun altitude
Exits shadow 02:02:34 22° 178° (S) 1,261 4.2 -14.9°
Maximum altitude 02:05:09 73° 97° (E) 587 3.0 -14.7°
Drops below altitude 10° 02:09:12 10° 13° (NNE) 1,849 6.7 -14.3°
Sets 02:11:23 0° 11° (NNE) 2,746 7.7 -14.1°
